Regional Weather Roundup
Issued by NWS Green Bay, WI

Home | Current Version | Previous Version | Text Only | Print | Product List | Glossary On
Versions: 1 2 3 4 5 6 7 8 9 10 11 12 13 14 15 16 17 18 19 20 21 22 23 24 25 26 27 28 29 30 31 32 33 34 35 36 37 38 39 40 41 42 43 44 45 46 47 48 49 50
154
ASUS43 KGRB 261700
RWRGRB

NORTH-CENTRAL AND NORTHEAST WISCONSIN REGIONAL WEATHER ROUNDUP
NATIONAL WEATHER SERVICE GREEN BAY WI
1200 PM CDT WED APR 26 2017

WIZ005-009-010>012-018-019-261800-
NORTH CENTRAL WISCONSIN

CITY           SKY/WX    TMP DP  RH WIND       PRES   REMARKS
IRONWOOD       LGT SNOW  32  31  96 N7        29.49F FOG
MANITOWISH WTR NOT AVBL
ARBOR VITAE    NOT AVBL
EAGLE RIVER    NOT AVBL
LAND O LAKES   NOT AVBL
RHINELANDER    RAIN      50  50 100 VRB3      29.37F FOG
PHILLIPS       NOT AVBL
ANTIGO         NOT AVBL
TOMAHAWK       NOT AVBL
MERRILL        NOT AVBL
$$

WIZ013-073-261800-
NORTHEAST WISCONSIN

CITY           SKY/WX    TMP DP  RH WIND       PRES   REMARKS
IRON MOUNTAIN  CLOUDY    53  50  89 E6        29.37F FOG
MARINETTE      CLOUDY    53  48  83 E7        29.40F
$$

WIZ017-030-035>037-045-261800-
CENTRAL WISCONSIN

CITY           SKY/WX    TMP DP  RH WIND       PRES   REMARKS
MEDFORD        NOT AVBL
WAUSAU         RAIN      54  54 100 SE5       29.35S FOG
MOSINEE        RAIN      55  55 100 S5        29.37R
MARSHFIELD     RAIN      57  55  93 S7        29.34F FOG
WISC RAPIDS    LGT RAIN  60  60 100 S6        29.36F
STEVENS POINT  NOT AVBL
WAUPACA        NOT AVBL
SHAWANO        NOT AVBL
CLINTONVILLE   NOT AVBL
WAUTOMA        LGT RAIN  60  58  92 S7        29.38
$$

WIZ038-039-048-051-261800-
FOX VALLEY

CITY           SKY/WX    TMP DP  RH WIND       PRES   REMARKS
NWS GREEN BAY  LGT RAIN  63  59  87 SE7       29.37F
APPLETON       RAIN      61  57  88 S8        29.37S
OSHKOSH        LGT RAIN  61  58  90 SW7       29.38R FOG
FOND DU LAC    RAIN      61  57  87 S10       29.39R FOG
$$

WIZ022-050-052-261800-
EAST CENTRAL WISCONSIN

CITY           SKY/WX    TMP DP  RH WIND       PRES   REMARKS
EPHRAIM        NOT AVBL
WASHINGTON ISL NOT AVBL
STURGEON BAY   CLOUDY    55  51  86 S18G25    29.39F
MANITOWOC      NOT AVBL
SHEBOYGAN      LGT RAIN  53  51  93 S15       29.41R FOG
$$

LMZ563-521-522-541>543-261800-
LAKESHORE

STATION/POSITION TIME  TEMP    WIND        PRES    VSBY  WAVE
                       AIR SEA DIR/SP/G                  HT/PER
                 (UTC) (F)     (DEG/KT/KT) (MB)    (MI)  (FT/S)
SHEBOYGAN LKSHOR 1600   45     170/ 11/ 12  995.9F
KEWAUNEE LKSHORE 1630   49     170/ 13/ 15  995.9R
NORTHPORT PIER   1640   46     140/  7/ 10  996.3F
N MID LAKE BUOY  1550   44 37  100/  8/ 10  998.4F         2/ 5
CHAMBERS ISLAND  1640          140/  8/ 13  995.9F
MENOMINEE LKSHOR 1630   47     360/  4/  4  995.0F
$$




USA.gov is the U.S. government's official web portal to all federal, state and local government web resources and services.